Regional Weather Roundup
Issued by NWS Pendleton, OR

Home | Current Version | Previous Version | Text Only | Print | Product List | Glossary On
Versions: 1 2 3 4 5 6 7 8 9 10 11 12 13 14 15 16 17 18 19 20 21 22 23 24 25 26 27 28 29 30 31 32 33 34 35 36 37 38 39 40 41 42 43 44 45 46 47 48 49 50
000
ASUS46 KPDT 301125
RWRPDT
PENDLETON REGIONAL WEATHER ROUNDUP
NATIONAL WEATHER SERVICE PENDLETON OREGON
400 AM PDT THU JUL 30 2015

NOTE: FAIR INDICATES FEW OR NO CLOUDS BELOW 12,000 FEET WITH NO
SIGNIFICANT WEATHER AND/OR OBSTRUCTIONS TO VISIBILITY.

# INDICATES UNOFFICIAL STATION AND DATA

WAZ520-301210-
EAST SLOPES OF WASHINGTON CASCADES

CITY            SKY/WX      TMP DP  RH  WIND    PRES   REMARKS
#BULLFROG 2SW   N/A         52  32  46  S2      27.76F
#BUMPING DAM    N/A         52  N/A N/A NE2     N/A
#CLE ELUM HS    N/A         52  41  66  CALM    30.09S
#CLE ELUM LAKE  N/A         64  35  34  CALM    30.01S
#CLIFFDEL 2NW   N/A         53  36  52  W1      N/A
#GLENWOOD       N/A         45  42  89  CALM    30.06S
#MANASTASH CYN  N/A         58  36  44  CALM    30.14S
#NELSON         N/A         50  33  52  CALM    30.09R
#NELSON 3SW     N/A         56  28  34  CALM    30.24S
#NILE           N/A         56  41  57  W1      29.38S
#RONALD 2NW     N/A         59  37  44  N1      30.05S
#SNOWDEN        N/A         56  23  28  CALM    N/A
#TEANAWAY 4NE   N/A         51  40  66  N3      N/A
#TROUT LAKE 1NE N/A         56  42  59  N2      30.04S
$$

WAZ521-301210-
SIMCOE HIGHLANDS

CITY            SKY/WX      TMP DP  RH  WIND    PRES   REMARKS
#BICKLETON HS   N/A         61  24  24  CALM    N/A
#CENTERVILLE 4W N/A         64  34  33  CALM    29.86S
#CENTERVILLE 1SWN/A         51  31  46  CALM    30.01R
#GOLDENDALE     N/A         61  35  38  E1      N/A
#GOLDENDALE 1NE N/A         58  22  25  N3      N/A
#GOLDENDALE 5WNWN/A         58  37  45  CALM    30.01R
#GOODNOE HILLS  N/A         71  30  22  SW2     N/A
#LYLE 6NE       N/A         65  39  38  NE5     29.97F
$$

WAZ026-301210-
KITTITAS VALLEY

CITY            SKY/WX      TMP DP  RH  WIND    PRES   REMARKS
ELLENSBURG AP   CLEAR       57  38  49  NE6     30.13S
YTC-OPS AREA    N/A         72  33  24  W12     30.15S
#ELLENSBURG CWU N/A         58  41  53  CALM    30.00S
#ELLENSBURG 3NE N/A         50  40  68  N2      30.12R
#ELLENSBURG 1E  N/A         53  40  61  CALM    N/A
#KITTITAS 3S    N/A         48  45  89  CALM    30.05R
#THORP 6N       N/A         58  36  44  N6      30.06S
$$

WAZ027-301210-
YAKIMA VALLEY

CITY            SKY/WX      TMP DP  RH  WIND    PRES   REMARKS
SUNNYSIDE AP    CLEAR       53  49  86  CALM    30.07R
YAKIMA AIRPORT  CLEAR       57  43  59  MISG    30.10R
#DONALD 2NE     N/A         69  23  17  W1      28.92S
#GRANDVIEW      N/A         58  48  69  CALM    30.05R
#MABTON         N/A         57  45  64  S2      30.06R
#MOXEE 2E       N/A         58  32  37  NE3     30.03S
#NACHES 2SW     N/A         66  46  48  W6      30.13S
#OUTLOOK DOT    N/A         N/A N/A N/A CALM    N/A
#SELAH 8E       N/A         57  30  35  SE5     N/A
#TERRACE HTS    N/A         59  44  57  CALM    30.00S
#TOPPENISH      N/A         62  48  60  CALM    29.95S
#WAPATO 4NE     N/A         69  23  17  W1      28.92S
#WEST VALLEY    N/A         64  44  48  CALM    30.03R
#WHITE SWAN 5E  N/A         N/A N/A N/A W1      30.04R
#WILEY CITY 3W  N/A         58  36  44  CALM    30.08R
$$

WAZ028-301210-
LOWER COLUMBIA BASIN...WASHINGTON

CITY            SKY/WX      TMP DP  RH  WIND    PRES   REMARKS
HANFORD         CLEAR       68  34  28  SW5     30.04S
PASCO           CLEAR       55  49  80  N3      30.05S
RICHLAND AWOS   CLEAR       61  52  72  CALM    30.05S
#BASIN CITY 5SW N/A         57  48  72  CALM    30.05S
#BENTON CITY    N/A         61  47  60  CALM    29.93S
#CONNELL 5N     N/A         58  35  42  NE1     30.02F
#CONNELL 5NW    N/A         59  37  44  E2      29.99S
#ELTOPIA 6NW    N/A         63  42  46  NE2     29.03S
#KAHLOTUS       N/A         60  33  36  S6      30.03R
#KENNEWICK      N/A         52  32  46  S2      27.76F
#KENNEWICK 3S   N/A         68  43  40  CALM    30.02S
#PATERSON       N/A         63  42  46  CALM    30.01R
#PROSSER        N/A         71  39  31  CALM    30.02S
#SAGEMOOR 2W    N/A         66  44  45  CALM    29.87S
#TOUCHET 2S     N/A         46  40  79  CALM    30.01S
#WEST PASCO     N/A         61  49  65  NE1     30.01S
$$

WAZ029-301210-
FOOTHILLS OF THE BLUES...WASHINGTON

CITY            SKY/WX      TMP DP  RH  WIND    PRES   REMARKS
WALLA WALLA AP  CLEAR       70  37  30  SE6     30.06F
#DAYTON SCHOOL  N/A         62  32  32  CALM    30.09S
#LOWDEN 2SE     N/A         51  45  80  CALM    30.02R
#PLEASANT VIEW 1N/A         65  32  29  CALM    30.04S
#PRESCOTT       N/A         58  40  51  CALM    30.02R
#SUDBURY        N/A         55  N/A N/A CALM    N/A
#WHITMAN COLLEGEN/A         70  41  35  CALM    30.05S
#WAITSBURG 8N   N/A         57  12  16  CALM    29.94S
#WALLA WALLA U  N/A         63  48  58  CALM    30.01S
#WHITMAN MISSIONN/A         54  47  77  CALM    30.03S
$$

WAZ030-301210-
BLUE MOUNTAINS...WASHINGTON

CITY            SKY/WX      TMP DP  RH  WIND    PRES   REMARKS
$$

ORZ009-041-WAZ024-301210-
COLUMBIA RIVER GORGE

CITY            SKY/WX      TMP DP  RH  WIND    PRES   REMARKS
HOOD RIVER AP   CLEAR       59  45  60  CALM    30.07S
THE DALLES AP   CLEAR       63  39  41  CALM    30.05R
#ARLINGTON AIRPON/A         67  37  33  N2      30.18
#MOSIER 1S      N/A         64  26  23  CALM    30.08S
#MURDOCK        N/A         67  48  50  NW2     30.04S

$$

ORZ510-301210-
NORTH CENTRAL OREGON

CITY            SKY/WX      TMP DP  RH  WIND    PRES   REMARKS
#CHENOWITH 1W   N/A         69  36  30  NW7     N/A
#DUFUR 9E       N/A         75  35  23  CALM    30.03S
#GRASS VALLEY 1SN/A         69  36  30  CALM    30.00F
#MAUPIN SCHOOL  N/A         63  33  32  CALM    30.09S
#MORO SCHOOL    N/A         56  37  49  SW1     30.11S
#SHANIKO 4NW    N/A         73  31  21  SW1     30.20S
#TYGH VALLEY 2NEN/A         59  36  42  CALM    30.02S
#WAPANITIA AIRPON/A         60  37  42  W1      30.03R
#WASCO AIRPORT  N/A         66  30  26  CALM    N/A
#WASCO 5NE      N/A         57  34  42  CALM    30.02S
$$

ORZ511-301210-
CENTRAL OREGON

CITY            SKY/WX      TMP DP  RH  WIND    PRES   REMARKS
BEND AIRPORT    CLEAR       57  32  38  SW8     30.20S
MADRAS AIRPORT  CLEAR       54  34  47  S6      30.16S
PRINEVILLE AP   CLEAR       48  27  44  CALM    30.19S
REDMOND AIRPORT CLEAR       53  30  41  E3      30.18S
#BEND 1SW       N/A         50  34  54  S1      N/A
#BEND-AWBREY    N/A         63  34  34  CALM    30.01S
#BEND-KIM LN    N/A         60  36  41  S3      30.18S
#CROOKED RVR RANN/A         N/A N/A N/A E13     30.00S
#CULVER         N/A         58  36  44  CALM    30.12S
#LAKE BILLY CHINN/A         63   1   8  CALM    30.18S
#POWELL BUTTE 3EN/A         52  28  39  N2      N/A
#POWELL BUTTE   N/A         58  30  34  SW2     29.81S
#PRINEVILLE 3N  N/A         50  40  68  CALM    30.02R
#WARM SPRINGS   N/A         57  35  43  CALM    30.09R

$$


ORZ509-301210-
EAST SLOPES OF OREGON CASCADES

CITY            SKY/WX      TMP DP  RH  WIND    PRES   REMARKS
#CAMP SHERMAN   N/A         43  30  60  CALM    30.08F
#LA PINE 4NW    N/A         42  31  65  CALM    30.09S
#SISTERS AIRPOR N/A         47  35  63  CALM    30.17S
#SISTERS 1NW    N/A         49  30  48  NE7     N/A
#SISTERS 3N     N/A         45  23  41  CALM    30.31S
#SUNRIVER       N/A         48  39  71  CALM    29.94R
#TUMALO 3W      N/A         67  32  27  SW5     29.89S
#WANOGA BUTTE D N/A         65  23  20  NE1     N/A

$$

ORZ044-301210-
LOWER COLUMBIA BASIN...OREGON

CITY            SKY/WX      TMP DP  RH  WIND    PRES   REMARKS
HERMISTON       CLEAR       55  40  57  S3      30.05R HAZE
#BOARDMAN SCHOOLN/A         56  47  72  CALM    30.05R
#BOARDMAN 8SW   N/A         63  40  43  CALM    30.01S
#ECHO 8SW       N/A         57  39  51  SW1     30.06S
#IONE SCHOOL    N/A         59  35  40  CALM    30.04S
#IRRIGON 4NW    N/A         57  54  90  S1      N/A
#UMATILLA       N/A         62  43  50  CALM    29.96R
$$

ORZ507-301210-
NORTHERN FOOTHILLS OF THE BLUES

CITY            SKY/WX      TMP DP  RH  WIND    PRES   REMARKS
PENDLETON AIRPT CLEAR       59  36  42  E7      30.08S
#ADAMS 3WNW     N/A         50  33  52  CALM    30.02F
#ATHENA         N/A         54  38  55  CALM    30.05S
#CAYUSE         N/A         69  41  36  E6      30.00S
#HELIX SCHOOL   N/A         53  33  46  CALM    30.02S
#HELIX 3N       N/A         68  34  28  CALM    30.06F
#HELIX 6SW      N/A         58  36  44  CALM    30.08
#HOLDMAN 5SE    N/A         60  39  46  CALM    30.08S
#HOLDMAN 6E     N/A         53  35  50  S2      29.83F
#M-F GROVE ELEM N/A         71  36  28  CALM    30.05S
#M-FREEWATER 5SEN/A         72  41  33  NE7     30.06F
#PENDLETON DNTN N/A         57  31  37  CALM    30.05S
#PDT AQUATIC CTRN/A         58  32  37  CALM    30.03F
#PDT SUNRIDGE   N/A         53  36  52  CALM    30.09S
#PENDLETON 7NW  N/A         59  39  47  E10     N/A
#PILOT ROCK     N/A         64  36  35  S1      30.11F
#TUTUILLA       N/A         51  39  63  CALM    30.05S
#UMAPINE 2E     N/A         55  46  72  CALM    30.02S
#WESTON SCHOOL  N/A         76  29  18  SW1     29.98S

$$

ORZ508-301210-
SOUTHERN FOOTHILLS OF THE BLUES

CITY            SKY/WX      TMP DP  RH  WIND    PRES   REMARKS
#CONDON SCHOOL  N/A         70  35  28  CALM    30.10F
#CONDON 5W      N/A         71  30  22  CALM    30.14S
#FOSSIL SCHOOL  N/A         56  34  43  CALM    30.10S
#HEPPNER EOC    N/A         65  34  31  E3      29.95S
#HEPPNER 4NE    N/A         67  35  30  SE1     30.00F
#LEXINGTON 2SE  N/A         61  38  42  CALM    30.06S
#OLEX 4N        N/A         62  35  36  S7      30.05R
#RUGGS 5NE      N/A         62  33  34  S2      30.33S
#RUGGS 2SW      N/A         68  35  29  SW10    30.02S

$$

ORZ502-503-301210-
BLUE MOUNTAINS

CITY            SKY/WX      TMP DP  RH  WIND    PRES   REMARKS
MEACHAM         CLEAR       43  36  76  CALM    30.23S
#HEPPNER 15SE   N/A         79  39  24  CALM    30.14S
#LONG CREEK HS  N/A         55  38  53  CALM    30.18S
#PIKES PEAK     N/A         77  33  20  S7      27.99S
#TOLLGATE       N/A         55  35  47  CALM    30.13S
#TROY SCHOOL    N/A         56  43  62  CALM    29.96R
#UKIAH          N/A         43  37  79  CALM    30.16R
#WESTON 4E      N/A         71  33  25  SE7     29.96F
$$

ORZ505-301210-
JOHN DAY BASIN

CITY            SKY/WX      TMP DP  RH  WIND    PRES   REMARKS
JOHN DAY        CLEAR       61  32  33  E8      30.23S
#JOHN DAY KJDY  N/A         51  45  80  CALM    30.24S
#DAYVILLE SCHOOLN/A         58  32  37  CALM    30.15S
#MITCHELL       N/A         58  38  47  E1      30.32S
#MONUMENT HS    N/A         54  40  59  CALM    30.16R
#MT. VERNON 5SE N/A         63  32  31  CALM    30.19S
#WINLOCK        N/A         60  34  37  CALM    30.25S
$$

ORZ506-301210-
OCHOCO AND JOHN DAY HIGHLANDS

CITY            SKY/WX      TMP DP  RH  WIND    PRES   REMARKS
#PAULINA SCHOOL N/A         49  37  63  CALM    30.18R
#PINE MTN OBS   N/A         64  26  23  SE3     N/A
#PRAIRIE CITY   N/A         45  38  76  CALM    30.29R
#SENECA         N/A         43  N/A N/A CALM    N/A
#SENECA 9NW     N/A         40  30  67  CALM    30.11S
$$

ORZ049-301210-
GRANDE RONDE VALLEY

CITY            SKY/WX      TMP DP  RH  WIND    PRES   REMARKS
LA GRANDE       CLEAR       52  32  46  CALM    30.20S
#COVE           N/A         55  44  66  NE1     30.21S
#COVE SCHOOL    N/A         54  41  61  CALM    30.21R
#COVE 6NW       N/A         48  40  74  CALM    30.14R
#ELGIN 3N       N/A         52  36  54  CALM    30.17S
#ELGIN 1E       N/A         52  38  59  CALM    N/A
#ISLAND CITY 4N N/A         62  49  62  CALM    30.00S
#LA GRANDE ELEM N/A         57  41  55  CALM    30.20S
#UNION 1S       N/A         51  40  66  CALM    29.99S
$$

ORZ050-301210-
WALLOWA COUNTY

CITY            SKY/WX      TMP DP  RH  WIND    PRES   REMARKS
JOSEPH AIRPORT  CLEAR       52  37  56  SW3     30.27S
#IMNAHA SCHOOL  N/A         58  40  51  S1      30.17R
#IMNAHA 10S     N/A         59  37  44  SW3     30.20R
#JOSEPH 3N      N/A         46  36  68  CALM    30.24S
#JOSEPH 3W      N/A         58  35  42  SW3     30.10S
#LOSTINE        N/A         47  39  74  CALM    29.91S
#MT HOWARD 8000 N/A         58  28  32  W1      30.50S
#PROMISE 1S     N/A         56  38  51  CALM    30.16S
#WALLOWA SCHOOL N/A         46  41  83  CALM    30.18R



$$



USA.gov is the U.S. government's official web portal to all federal, state and local government web resources and services.